Regional Weather Roundup
Issued by NWS Pendleton, OR

Home | Current Version | Previous Version | Text Only | Print | Product List | Glossary On
Versions: 1 2 3 4 5 6 7 8 9 10 11 12 13 14 15 16 17 18 19 20 21 22 23 24 25 26 27 28 29 30 31 32 33 34 35 36 37 38 39 40 41 42 43 44 45 46 47 48 49 50
000
ASUS46 KPDT 280825
RWRPDT
PENDLETON REGIONAL WEATHER ROUNDUP
NATIONAL WEATHER SERVICE PENDLETON OREGON
100 AM PDT SAT MAY 28 2016

NOTE: FAIR INDICATES FEW OR NO CLOUDS BELOW 12,000 FEET WITH NO
SIGNIFICANT WEATHER AND/OR OBSTRUCTIONS TO VISIBILITY.

# INDICATES UNOFFICIAL STATION AND DATA

WAZ520-280910-
EAST SLOPES OF WASHINGTON CASCADES

CITY            SKY/WX      TMP DP  RH  WIND    PRES   REMARKS
#CLE ELUM HS    N/A         44  35  70  NW7     30.03S
#CLE ELUM 2NW   N/A         43  35  73  SW2     N/A
#GLENWOOD       N/A         46  39  76  S7      30.07S
#MANASTASH CYN  N/A         43  31  62  CALM    30.01F
#NELSON 3SW     N/A         40  33  76  CALM    30.26F
#NILE           N/A         41  36  82  CALM    29.33S
#RONALD 2NW     N/A         44  N/A N/A NW1     29.94S
#TEANAWAY 4NE   N/A         44  37  76  W3      N/A
#TROUT LAKE 1NE N/A         44  39  82  W3      30.10F
$$

WAZ521-280910-
SIMCOE HIGHLANDS

CITY            SKY/WX      TMP DP  RH  WIND    PRES   REMARKS
#CENTERVILLE 1SWN/A         43  36  76  W8      30.04F
#GOLDENDALE 1NE N/A         44  28  53  S2      N/A
#GOLDENDALE 4W  N/A         44  39  82  W7      30.11S
#GOODNOE HILLS  N/A         49  41  74  W22     29.96F WCI 42
#LYLE 6NE       N/A         47  40  76  S7      30.06F
$$

WAZ026-280910-
KITTITAS VALLEY

CITY            SKY/WX      TMP DP  RH  WIND    PRES   REMARKS
ELLENSBURG AP   MOCLDY      48  36  63  NW10    30.06R
#ELLENSBURG CWU N/A         46  37  71  NW7     30.00S
#ELLENSBURG 3NE N/A         46  37  71  NW6     30.06R
#ELLENSBURG     N/A         49  41  74  NW5     N/A
#ELLENSBURG 1E  N/A         46  N/A N/A CALM    N/A
#ELLENSBURG 13S N/A         50  39  66  CALM    N/A
#KITTITAS 4N    N/A         45  34  65  W15     30.07F WCI 38
#KITTITAS 3S    N/A         47  39  74  NW9     30.03S
#THORP 6N       N/A         43  36  76  W13     30.07R WCI 36
$$

WAZ027-280910-
YAKIMA VALLEY

CITY            SKY/WX      TMP DP  RH  WIND    PRES   REMARKS
SUNNYSIDE AP    PTCLDY      49  37  63  CALM    30.05S
YAKIMA AIRPORT  MOCLDY      52  35  52  SW5     30.05S
YAKIMA-VAGABOND CLEAR       48  34  58  NE3     30.03S
#DONALD 2NE     N/A         51  21  30  S1      28.89S
#GRANDVIEW      N/A         52  35  52  CALM    30.05S
#MABTON         N/A         50  39  66  SW3     30.05S
#NACHES 2SW     N/A         48  38  68  W6      30.05F
#TERRACE HTS    N/A         51  36  56  NW1     29.98F
#TOPPENISH      N/A         52  38  59  CALM    29.95S
#WEST VALLEY    N/A         51  36  56  NW6     30.01F
#WHITE SWAN 5E  N/A         51  37  59  W3      30.04S
#WILEY CITY 3W  N/A         42  33  70  CALM    30.01F
$$

WAZ028-280910-
LOWER COLUMBIA BASIN...WASHINGTON

CITY            SKY/WX      TMP DP  RH  WIND    PRES   REMARKS
PASCO           PTCLDY      55  37  51  S7      30.06S
PROSSER AWOS    N/A         46  39  76  NW1     30.08S
RICHLAND AWOS   PTCLDY      53  35  50  CALM    30.06R
#BENTON CITY    N/A         49  36  61  CALM    29.95R
#CONNELL 5N     N/A         45  38  76  W5      30.02S
#CONNELL 5NW    N/A         44  38  79  W1      29.98S
#ELTOPIA 6NW    N/A         51  38  61  CALM    29.00S
#KAHLOTUS       N/A         48  35  60  NW7     30.01R
#KENNEWICK 3S   N/A         51  40  66  N6      30.05S
#PATERSON       N/A         52  42  69  N5      30.04S
#SAGEMOOR 2W    N/A         49  38  66  W1      29.89R
#TOUCHET 2S     N/A         53  41  64  S12     30.03R
#WEST PASCO     N/A         52  36  54  CALM    30.11R
$$

WAZ029-280910-
FOOTHILLS OF THE BLUES...WASHINGTON

CITY            SKY/WX      TMP DP  RH  WIND    PRES   REMARKS
WALLA WALLA AP  CLOUDY      52  39  61  S9      30.08R
#CLYDE 6NW      N/A         46  34  63  CALM    30.04R
#DAYTON SCHOOL  N/A         52  33  48  S3      30.07R
#LOWDEN 2SE     N/A         52  42  69  W2      30.04R
#PLEASANT VIEW 1N/A         43  34  70  S6      30.07R
#PRESCOTT       N/A         51  42  71  CALM    30.04R
#SUDBURY        N/A         62  N/A N/A CALM    N/A
#WHITMAN COLLEGEN/A         53  41  64  SE1     30.12R
#WAITSBURG 5S   N/A         48  39  71  S7      30.16R
#WAITSBURG 8N   N/A         46  18  32  S1      29.91R
#WALLA WALLA U  N/A         55  41  59  CALM    30.06R
#WHITMAN MISSIONN/A         54  42  64  CALM    30.08R
$$

WAZ030-280910-
BLUE MOUNTAINS...WASHINGTON

CITY            SKY/WX      TMP DP  RH  WIND    PRES   REMARKS
#DIXIE 5SE      N/A         45  37  73  SW7     30.00R
$$

ORZ009-041-WAZ024-280910-
COLUMBIA RIVER GORGE

CITY            SKY/WX      TMP DP  RH  WIND    PRES   REMARKS
HOOD RIVER AP   PTCLDY      52  39  61  NW7     30.13F
THE DALLES AP   MOCLDY      55  38  53  W14     30.10F
#ARLINGTON AIRPON/A         51  40  66  W6      30.08R
#CELILO DOT     N/A         55  38  53  SW8     N/A
#LYLE           N/A         55  43  64  W15     30.12S
#MARYHILL 2W    N/A         51  42  71  SW3     N/A
#MOSIER 1S      N/A         50  30  46  W6      30.09S
#MURDOCK        N/A         54  41  61  W12     30.07F
#RUFUS DOT      N/A         55  40  57  W16     N/A
#SMITHVILLE     N/A         55  41  59  W20G28  30.05S

$$

ORZ510-280910-
NORTH CENTRAL OREGON

CITY            SKY/WX      TMP DP  RH  WIND    PRES   REMARKS
#ANTELOPE       N/A         38  33  82  CALM    29.98S
#CHENOWITH 1W   N/A         46  38  73  W31     N/A    WCI 36
#COW CYN RST AREN/A         43  N/A N/A W6      N/A
#DUFUR 9E       N/A         44  38  79  NW7     30.14F
#GRASS VALLEY   N/A         42  37  82  E2      N/A
#GRASS VALLEY 1SN/A         42  37  82  CALM    30.03S
#KENT DOT       N/A         41  32  70  N1      N/A
#MAUPIN SCHOOL  N/A         48  37  65  CALM    30.13S
#MORO SCHOOL    N/A         46  41  83  W6      30.10S
#SHANIKO 4NW    N/A         41  -61  1  W9      30.08S
#TYGH VALLEY 2NEN/A         45  38  76  CALM    30.08F
#WAPANITIA AIRPON/A         46  37  71  W1      30.10F
#WASCO DOT      N/A         49  38  66  W12     N/A    WCI 44
#WASCO AIRPORT  N/A         48  37  65  W16     N/A    WCI 42
#WASCO 5NE      N/A         47  39  74  W7      30.06S
$$

ORZ511-280910-
CENTRAL OREGON

CITY            SKY/WX      TMP DP  RH  WIND    PRES   REMARKS
BEND AIRPORT    PTCLDY      37  32  82  S7      30.11F
MADRAS AIRPORT  PTCLDY      43  37  79  S5      30.13S
PRINEVILLE AP   PTCLDY      36  32  85  S5      30.11F
REDMOND AIRPORT PTCLDY      44  33  65  NW3     30.11F
#ASHWOOD SCHOOL N/A         42  35  76  CALM    30.07S
#BEND 1SW       N/A         35  30  82  CALM    N/A
#BEND-AWBREY    N/A         40  33  76  S2      30.09F
#BEND-KIM LN    N/A         38  32  79  CALM    30.09S
#CULVER         N/A         43  35  73  CALM    30.07F
#CULVER 8W      N/A         38  32  79  CALM    30.09S
#LAKE BILLY CHINN/A         44  N/A N/A CALM    30.18R
#MADRAS 4S      N/A         40  18  41  S3      30.17S
#POWELL BUTTE 3EN/A         38  34  85  S2      N/A
#POWELL BUTTE   N/A         40  33  76  SW1     29.97F
#PRINEVILLE 3N  N/A         39  33  79  E2      30.10F

$$


ORZ509-280910-
EAST SLOPES OF OREGON CASCADES

CITY            SKY/WX      TMP DP  RH  WIND    PRES   REMARKS
SISTERS AWOS    N/A         43  34  70  CALM    30.08F
#BLUE BOX PASS  N/A         38  N/A N/A NW9     N/A
#CAMP SHERMAN   N/A         38  31  76  CALM    30.16F
#LA PINE DOT    N/A         40  30  67  W2      N/A
#LA PINE 4NW    N/A         36  29  75  CALM    30.12F
#LAVA BUTTE DOT N/A         35  28  75  CALM    N/A
#SISTERS AIRPOR N/A         41  37  86  CALM    30.17S
#SISTERS ODOT   N/A         43  N/A N/A CALM    N/A
#SISTERS 1NW    N/A         42  32  67  NE5     N/A
#SISTERS 3N     N/A         40  29  64  CALM    30.08S
#SUNRIVER       N/A         34  29  82  CALM    30.12S
#SUTTLE LK DOT  N/A         37  35  92  W15G29  N/A    WCI 28
#TUMALO 3W      N/A         39  30  70  W2      29.98F
#WANOGA BUTTE D N/A         36  22  56  E3      N/A

$$

ORZ044-280910-
LOWER COLUMBIA BASIN...OREGON

CITY            SKY/WX      TMP DP  RH  WIND    PRES   REMARKS
HERMISTON       PTCLDY      50  39  66  SW9     30.07R
#BOARDMAN SCHOOLN/A         52  41  66  S6      30.07R
#ECHO 8SW       N/A         51  38  61  SW9     30.07F
#I-84 EX 198 DOTN/A         51  37  59  E13     N/A
#UMATILLA SCHOOLN/A         49  44  83  CALM    30.11R
#UMATILLA       N/A         52  39  61  CALM    30.00R
$$

ORZ507-280910-
NORTHERN FOOTHILLS OF THE BLUES

CITY            SKY/WX      TMP DP  RH  WIND    PRES   REMARKS
PENDLETON AIRPT MOCLDY      50  35  56  W15     30.07S
#ADAMS 3WNW     N/A         47  39  74  CALM    30.08S
#ATHENA         N/A         49  39  68  CALM    30.10R
#CAYUSE         N/A         51  38  61  SW9     30.07S
#HELIX SCHOOL   N/A         46  39  76  SE5     30.07R
#HELIX 3N       N/A         44  39  82  S7      30.04S
#HOLDMAN 5SE    N/A         46  39  76  CALM    30.07R
#HOLDMAN 6E     N/A         46  37  71  N7      29.88R
#M-F GROVE ELEM N/A         53  37  54  S6      30.06R
#M-FREEWATER 5SEN/A         52  39  61  CALM    30.07S
#PENDLETON DNTN N/A         54  32  43  S2      30.10S
#PDT AQUATIC CTRN/A         53  32  45  SE3     30.11S
#PDT SUNRIDGE   N/A         50  37  61  S1      30.10S
#PENDLETON 7NW  N/A         50  37  61  CALM    31.97S
#PILOT ROCK 1S  N/A         51  33  50  S13     30.09S
#PILOT ROCK     N/A         50  36  58  SW6     30.10F
#TUTUILLA       N/A         51  38  61  CALM    30.09S
#UMAPINE 2E     N/A         55  42  61  SW5     30.04R
#WESTON SCHOOL  N/A         48  35  60  N5      29.98R

$$

ORZ508-280910-
SOUTHERN FOOTHILLS OF THE BLUES

CITY            SKY/WX      TMP DP  RH  WIND    PRES   REMARKS
LEXINGTON       PTCLDY      48  37  65  SW6     30.12F
#AJAX           N/A         45  31  58  CALM    27.83S
#CONDON SCHOOL  N/A         41  37  86  W5      30.04S
#CONDON 5W      N/A         40  35  82  W6      30.06S
#FOSSIL SCHOOL  N/A         40  35  82  CALM    30.04F
#HEPPNER EOC    N/A         44  36  73  CALM    30.02F
#HEPPNER 4NE    N/A         43  36  76  S7      30.08F
#RUGGS 5NE      N/A         41  36  82  SW3     30.23F
#RUGGS 2SW      N/A         41  35  79  W6      30.11F

$$

ORZ502-503-280910-
BLUE MOUNTAINS

CITY            SKY/WX      TMP DP  RH  WIND    PRES   REMARKS
MEACHAM         MOCLDY      42  32  67  CALM    30.08S
#BATTLE MTN DOT N/A         38  37  96  CALM    N/A
#CUTSFORTH PARK N/A         34  30  85  CALM    29.85F
#GREENHORN 9SW  N/A         35  30  82  CALM    26.27
#HARDMAN 10S    N/A         61  34  36  N5      30.22S
#HEPPNER 15SE   N/A         36  33  89  CALM    25.60F
#LADD CYN SMT   N/A         43  26  51  N3      N/A
#LADD CREEK ODOTN/A         46  32  58  NE1     N/A
#LONG CREEK HS  N/A         44  39  82  CALM    N/A
#N POWDER DOT   N/A         41  32  70  NE3     N/A
#PIKES PEAK     N/A         42  34  73  SW20    27.99S WCI 33
#TOLLGATE       N/A         35  33  92  SW2     29.92S
#TROY SCHOOL    N/A         47  38  71  CALM    29.90R
#UKIAH          N/A         35  32  89  CALM    30.01R
#WESTON 4E      N/A         42  36  79  S3      30.05S
$$

ORZ505-280910-
JOHN DAY BASIN

CITY            SKY/WX      TMP DP  RH  WIND    PRES   REMARKS
JOHN DAY        N/A         N/A N/A N/A MISG    N/A
#DAYVILLE SCHOOLN/A         50  32  50  W6      30.06S
#MITCHELL       N/A         44  36  73  CALM    30.24F
#MONUMENT HS    N/A         50  35  56  CALM    30.06F
#MT. VERNON 5SE N/A         44  34  68  CALM    30.05R
#SPRAY SCHOOL   N/A         46  N/A N/A CALM    N/A
#WINLOCK        N/A         37  32  82  CALM    30.05S
$$

ORZ506-280910-
OCHOCO AND JOHN DAY HIGHLANDS

CITY            SKY/WX      TMP DP  RH  WIND    PRES   REMARKS
#BUCK CREEK DOT N/A         42  35  76  NW7     N/A
#HORSE RIDGE DO N/A         31  26  81  CALM    N/A
#KEYES SMT DOT  N/A         39  30  70  N3      N/A
#PAULINA SCHOOL N/A         43  30  60  W3      N/A
#PINE MTN OBS   N/A         30  28  92  NW3     N/A
#PRAIRIE CITY   N/A         41  33  73  CALM    30.22R
#SENECA         N/A         38  N/A N/A CALM    N/A
#SENECA 9NW     N/A         33  28  82  CALM    30.04R
$$

ORZ049-280910-
GRANDE RONDE VALLEY

CITY            SKY/WX      TMP DP  RH  WIND    PRES   REMARKS
LA GRANDE       MOCLDY      45  28  51  NW10    30.07S
#COVE           N/A         40  35  82  N1      30.11R
#COVE SCHOOL    N/A         40  33  76  CALM    30.10R
#COVE 6NW       N/A         40  32  73  CALM    29.96S
#ELGIN 3N       N/A         42  32  67  CALM    30.05S
#ELGIN 1E       N/A         45  34  65  CALM    N/A
#ISLAND CITY 4N N/A         47  44  89  CALM    30.19S
#LADD CYN DOT   N/A         46  33  60  NE6     N/A
#UNION 1S       N/A         45  34  65  CALM    29.98R
$$

ORZ050-280910-
WALLOWA COUNTY

CITY            SKY/WX      TMP DP  RH  WIND    PRES   REMARKS
JOSEPH AIRPORT  PTCLDY      34  28  78  S3      N/A
#ENTERPRISE AP  N/A         49  29  46  CALM    30.00S
#ENTERPRISE HS  N/A         34  29  82  CALM    30.09R
#IMNAHA SCHOOL  N/A         44  38  79  SW1     30.07R
#IMNAHA 10S     N/A         40  33  76  SW3     30.06R
#JOSEPH 3N      N/A         30  24  78  CALM    30.08S
#JOSEPH 3W      N/A         34  28  78  SW1     29.88F
#LOSTINE 3SE    N/A         35  31  85  S1      30.06S
#MT HOWARD 8000 N/A         27  22  81  CALM    30.03F
#PROMISE 1S     N/A         43  35  73  CALM    30.16S
#WALLOWA SCHOOL N/A         36  31  82  CALM    30.05R



$$



USA.gov is the U.S. government's official web portal to all federal, state and local government web resources and services.